ALOUETTE 1 (S-27) 1 00424U 62049A 10040.08884209 .00000020 00000-0 12279-4 0 3266 2 00424 80.4631 41.0565 0023380 153.1086 207.1275 13.68727224364105 IUE 1 10637U 78012A 10036.88887796 -.00000301 00000-0 10000-3 0 5654 2 10637 43.2321 12.2421 1525931 157.7088 209.7374 1.00059814 69799 IRAS 1 13777U 83004A 10039.61709867 .00000296 00000-0 23078-3 0 1067 2 13777 99.0564 235.6434 0021641 267.5199 92.3486 14.00097798 50686 AKEBONO (EXOS-D) 1 19822U 89016A 10039.54293235 .00009489 -10021-6 29285-3 0 4436 2 19822 75.0687 78.0643 2684385 41.9291 335.8760 10.03343072619121 INTERCOSMOS 24 1 20261U 89080A 10039.86354830 -.00000099 00000-0 -37999-4 0 853 2 20261 82.5935 306.3726 1215920 156.4640 209.7309 12.53456913929232 COBE 1 20322U 89089A 10039.09727707 -.00000175 00000-0 -82272-4 0 1155 2 20322 98.9967 44.0411 0008590 181.2747 178.8421 14.04383050 36283 HST 1 20580U 90037B 10039.31536863 .00000423 00000-0 19571-4 0 5141 2 20580 28.4702 1.1182 0003300 268.1978 91.8283 15.00889866885362 ROSAT 1 20638U 90049A 10040.19144254 .00009425 00000-0 11145-3 0 8956 2 20638 52.9945 358.2261 0004319 60.0650 300.0794 15.62086982 96821 CRRES 1 20712U 90065A 10038.97707213 .00000004 00000-0 -13985-4 0 266 2 20712 18.2621 337.7547 7123632 244.4023 28.9592 2.42814251162826 SARA 1 21578U 91050E 10039.82888990 .00000136 00000-0 45841-4 0 7537 2 21578 98.2580 10.9723 0002879 159.9369 200.1945 14.50519719978723 UARS 1 21701U 91063B 10040.18418055 .00008617 00000-0 10902-3 0 8869 2 21701 56.9727 43.1487 0063318 277.0309 82.3554 15.58109154 16121 SAMPEX 1 22012U 92038A 10039.22776869 .00001960 00000-0 46600-4 0 1212 2 22012 81.6355 34.2625 0045661 159.8923 200.4132 15.39898859970720 ORBVIEW 1 (MICROLAB) 1 23547U 95017C 10040.00937958 .00000089 00000-0 35217-4 0 1800 2 23547 69.9825 7.2318 0014289 278.6909 81.2603 14.55555713787078 RXTE (XTE) 1 23757U 95074A 10039.39936609 .00001611 00000-0 41185-4 0 563 2 23757 22.9807 151.7008 0008373 70.8849 289.2558 15.27628858781932 FAST 1 24285U 96049A 10038.91470995 .00001406 00000-0 12026-3 0 9136 2 24285 82.9711 300.1384 1996414 78.8359 302.9324 11.26679983545070 TRACE 1 25280U 98020A 10040.23424056 -.00000286 00000-0 -18620-4 0 4373 2 25280 97.6620 250.8470 0021909 177.4539 182.6795 14.98936211646561 SAFIR 2 1 25399U 98043F 10040.06761173 -.00000032 00000-0 36749-5 0 5501 2 25399 98.3146 62.2409 0001655 181.2065 178.9112 14.23952608602067 SWAS 1 25560U 98071A 10039.89654793 .00000128 00000-0 23837-4 0 1672 2 25560 69.9012 136.1871 0011740 252.4908 107.4987 14.86948916605550 ASTRID 2 1 25568U 98072B 10040.20510584 -.00000086 00000-0 -11166-3 0 2865 2 25568 82.9501 164.8803 0026586 115.9424 244.4474 13.72007454559164 ORSTED 1 25635U 99008B 10040.03171274 .00000132 00000-0 40257-4 0 8387 2 25635 96.4614 179.8852 0144032 155.7532 205.0536 14.45856065577964 SUNSAT (SO-35) 1 25636U 99008C 10040.12695058 .00000048 00000-0 20423-4 0 5295 2 25636 96.4689 172.3156 0147474 191.0518 168.7424 14.43486995577287 WIRE 1 25646U 99011A 10039.44623970 .00010020 00000-0 12253-3 0 328 2 25646 97.2628 314.2477 0005823 345.4372 14.6779 15.60594581611885 ABRIXAS 1 25721U 99022A 10039.80853321 .00000451 00000-0 34685-4 0 7697 2 25721 48.4374 201.9226 0020683 197.4872 162.5331 15.20463144596469 TERRIERS 1 25735U 99026A 10039.10831660 .00000420 00000-0 20036-4 0 9267 2 25735 97.1875 267.9902 0006228 313.3564 46.7146 15.24094948594810 FUSE 1 1 25791U 99035A 10039.95457355 .00000202 00000-0 65851-5 0 6278 2 25791 24.9865 316.4395 0010622 239.5579 120.3887 14.41811443560609 CXO 1 25867U 99040B 10039.58333333 -.00000543 00000-0 10000-3 0 4266 2 25867 66.5047 59.6385 7961038 275.2193 11.8125 0.37807764 5901 CLEMENTINE 1 25978U 99064B 10040.14036451 .00000661 00000-0 82982-4 0 8689 2 25978 98.1195 124.4943 0011586 76.7692 283.4806 14.85588865551090 XMM-NEWTON 1 25989U 99066A 10038.37500000 .00000178 00000-0 10000-3 0 8056 2 25989 60.0036 95.4135 5975592 108.1905 1.4713 0.50140639 7419 TERRA 1 25994U 99068A 10040.08894322 .00000012 00000-0 12604-4 0 4931 2 25994 98.2034 116.5674 0001464 69.1904 290.9456 14.57106631539658 ACRIMSAT 1 26033U 99070B 10038.96072394 .00000019 00000-0 13151-4 0 8726 2 26033 97.9459 277.6870 0028797 174.1168 186.0377 14.60581793539965 IMAGE 1 26113U 00017A 10039.52340022 .00000370 00000-0 10000-3 0 9222 2 26113 91.3539 214.8483 7301878 257.8828 19.1851 1.68637662 60803 CLUSTER II-FM6 1 26410U 00041A 10039.95833333 .00001464 00000-0 00000-0 0 4482 2 26410 122.2132 205.5765 8759506 40.5344 356.8996 0.44221369 5617 CLUSTER II-FM7 1 26411U 00041B 10039.95833333 .00001464 00000-0 00000-0 0 4584 2 26411 122.1834 205.5819 8754913 40.6068 357.2341 0.44220916 5691 CLUSTER II-FM5 1 26463U 00045A 10039.95833333 .00001315 00000-0 00000-0 0 4467 2 26463 124.2544 207.0511 8610431 39.2166 357.4167 0.44221664 6199 CLUSTER II-FM8 1 26464U 00045B 10039.95833333 .00000682 00000-0 00000+0 0 4407 2 26464 115.9215 194.7475 8777633 33.1270 357.0012 0.44221418 5584 MEGSAT-1 1 26546U 00057B 10039.21775449 -.00000038 00000-0 13571-4 0 9002 2 26546 64.5590 58.9972 0042115 238.7878 120.9077 14.84290404507217 HETE-2 1 26561U 00061A 10037.14365978 .00001113 00000-0 26238-4 0 5101 2 26561 1.9525 289.6271 0023742 217.8796 141.9788 14.96157915510201 MUNIN 1 26621U 00075C 10039.22252552 -.00000559 00000-0 -49915-3 0 7627 2 26621 95.4231 303.1905 0717217 148.7201 215.8710 13.03725704438463 ODIN 1 26702U 01007A 10040.03546324 -.00000348 00000-0 -26070-4 0 9252 2 26702 97.6973 61.5790 0005103 45.0269 315.1351 14.95797387488866 TIMED 1 26998U 01055B 10039.47535252 .00000076 00000-0 13375-4 0 4958 2 26998 74.0712 242.6963 0001929 267.7990 92.2957 14.84129287442572 RHESSI 1 27370U 02004A 10038.91218570 .00000269 00000-0 27985-4 0 2580 2 27370 38.0389 204.1380 0017493 311.6555 48.2708 15.02331664439196 INTEGRAL 1 27540U 02048A 10038.33333333 .00000209 00000-0 10000-3 0 8947 2 27540 84.7141 348.0315 8606013 258.4184 357.6201 0.33403201 5088 FEDSAT 1 27598U 02056B 10039.24640309 -.00000023 00000-0 74330-5 0 9971 2 27598 98.3451 86.0701 0008236 257.9289 102.0973 14.28025120372937 WEOS 1 27599U 02056C 10039.69473989 -.00000121 00000-0 -31601-4 0 96 2 27599 98.3656 92.6798 0009070 267.5782 92.4360 14.28583069373132 MICRO LABSAT 1 27600U 02056D 10039.66769010 -.00000006 00000-0 14036-4 0 9744 2 27600 98.3591 92.2154 0009992 270.8493 89.1547 14.28877538373210 CORIOLIS 1 27640U 03001A 10040.10637640 -.00000104 00000-0 -29296-4 0 1873 2 27640 98.7532 47.9756 0015100 95.4990 264.7879 14.18362247367249 CHIPSAT 1 27643U 03002B 10040.23532110 .00000925 00000-0 80780-4 0 3008 2 27643 94.0141 70.5263 0011784 359.8957 0.2268 14.97370525386438 SORCE 1 27651U 03004A 10039.50067296 .00000041 00000-0 20710-4 0 1201 2 27651 39.9962 89.9666 0025245 190.5307 169.4949 14.82255946381367 GALEX 1 27783U 03017A 10039.72419692 .00000435 00000-0 67830-4 0 8664 2 27783 28.9980 259.5339 0004205 255.7144 104.3048 14.59795110362373 MOST 1 27843U 03031D 10039.10200876 -.00000007 00000-0 17317-4 0 7694 2 27843 98.7189 48.5287 0009478 188.9740 171.1260 14.20129429342660 QUAKESAT 1 27845U 03031F 10038.58850616 .00000037 00000-0 37940-4 0 7483 2 27845 98.7193 48.8724 0008567 199.5494 160.5352 14.20323492342589 AAU CUBESAT 1 27846U 03031G 10039.48251487 .00000031 00000-0 34411-4 0 6792 2 27846 98.7042 51.2039 0009563 157.5472 202.6128 14.21015169342902 SCISAT 1 1 27858U 03036A 10039.42734508 .00000063 00000-0 14641-4 0 9469 2 27858 73.9334 77.3325 0007231 81.0580 279.1419 14.74834403349549 KAISTSAT 4 1 27945U 03042G 10039.48649955 -.00000046 00000-0 -18235-6 0 8883 2 27945 97.9138 271.3651 0013489 111.9953 248.2674 14.63170410340136 GP-B 1 28230U 04014A 10038.42380618 .00000020 00000-0 62985-6 0 7084 2 28230 89.9395 156.3459 0003301 66.2685 293.8877 14.76014421312474 DEMETER 1 28368U 04025C 10040.12881974 .00000059 00000-0 17726-4 0 3662 2 28368 97.9819 105.5119 0001301 94.2378 265.8981 14.70143025300539 DOUBLESTAR (TC-2) 1 28382U 04029A 10039.99070712 .00000070 00000-0 10000-3 0 2709 2 28382 89.2173 333.6514 7264031 245.1241 331.8339 2.11756754 42657 SWIFT 1 28485U 04047A 10040.04047345 .00000726 00000-0 30324-4 0 5036 2 28485 20.5590 13.4385 0014563 113.8857 246.3121 14.92651188285106 SUZAKU (ASTRO-EII) 1 28773U 05025A 10039.53098449 .00000417 00000-0 26318-4 0 1835 2 28773 31.4050 211.9441 0006690 14.0477 346.0351 15.00927950251747 AKARI (ASTRO-F) 1 28939U 06005A 10040.03859905 .00000024 00000-0 15513-4 0 2017 2 28939 98.2535 46.2314 0008582 159.6711 200.4819 14.57594820210594 FORMOSAT-3 FM6 1 29047U 06011A 10037.89641423 -.00000043 00000-0 -82760-6 0 1617 2 29047 71.9788 263.5141 0050690 101.1421 259.5370 14.27099354201217 FORMOSAT-3 FM1 1 29048U 06011B 10039.46888914 .00000390 00000-0 17471-3 0 2114 2 29048 71.9686 175.5029 0043992 47.0470 313.4299 14.27136329203914 FORMOSAT-3 FM5 1 29049U 06011C 10039.90507091 .00000361 00000-0 16364-3 0 1575 2 29049 72.0227 325.0153 0034353 109.7057 250.7754 14.27149512199759 FORMOSAT-3 FM3 1 29050U 06011D 10039.51565454 .00001101 00000-0 26646-3 0 4403 2 29050 72.0097 122.6052 0053237 335.2493 24.6079 14.54153189205590 FORMOSAT-3 FM4 1 29051U 06011E 10039.51655510 .00000372 00000-0 16522-3 0 2147 2 29051 72.0039 234.4031 0069972 337.0237 22.7750 14.27145129202288 FORMOSAT-3 FM2 1 29052U 06011F 10040.12532185 .00000360 00000-0 16273-3 0 2352 2 29052 72.0377 295.9737 0039572 77.2018 283.3521 14.27153860200675 CLOUDSAT 1 29107U 06016A 10039.97316776 .00000067 00000-0 24951-4 0 2004 2 29107 98.2049 345.5642 0001055 80.0167 280.1157 14.57128498201359 CALIPSO 1 29108U 06016B 10040.04202089 .00000119 00000-0 36408-4 0 2037 2 29108 98.2051 345.6805 0001104 74.2099 285.9223 14.57129581201349 HINODE (SOLAR-B) 1 29479U 06041A 10039.23437962 .00000099 00000-0 28467-4 0 823 2 29479 98.0902 44.1158 0015771 18.0119 342.1642 14.62950459180494 SJ-6C 1 29505U 06046A 10040.12846360 .00000365 00000-0 42739-4 0 7016 2 29505 97.6924 45.8176 0003995 27.8005 332.3408 14.90705390179388 SJ-6D 1 29506U 06046B 10040.14260743 -.00000375 00000-0 -33312-4 0 6923 2 29506 97.6962 44.7686 0003463 68.5346 291.6274 14.90001492179307 COROT 1 29678U 06063A 10040.01913988 .00000072 00000-0 42933-4 0 345 2 29678 89.9300 10.2407 0006575 112.9110 247.2769 13.98117746159206 AIM 1 31304U 07015A 10039.33180544 .00000020 00000-0 75263-5 0 9535 2 31304 97.8005 142.7992 0012241 152.9601 207.2254 14.92313116152012 FGRST (GLAST) 1 33053U 08029A 10039.50815034 .00000278 00000-0 00000+0 0 4353 2 33053 25.5805 193.2820 0013796 325.9865 33.9818 15.05000328 91523 KORONAS-FOTON 1 33504U 09003A 10038.40468231 .00000031 00000-0 13639-6 0 2857 2 33504 82.4784 355.8475 0016514 5.0615 355.0773 15.05369500 56095 TATIANA 2 1 35868U 09049D 10039.32755608 .00000177 00000-0 10000-3 0 1273 2 35868 98.7786 94.0007 0004418 15.9680 344.1636 14.22096238 20414 UGATUSAT 1 35869U 09049E 10039.83169536 .00000176 00000-0 10000-3 0 1256 2 35869 98.7771 94.4630 0005123 23.9180 336.2184 14.21975040 20486 SUMBANDILA (SO-67) 1 35870U 09049F 10040.10476450 .00000529 00000-0 25527-4 0 4296 2 35870 97.3511 92.3125 0012081 140.2921 306.1877 15.22865741 21976 WISE 1 36119U 09071A 10040.20230839 .00000750 00000-0 46952-4 0 486 2 36119 97.5064 46.6256 0002123 351.7992 8.3204 15.12362167 8555